Location: Banff
(51.1670°N, 115.5670°W)
Time: 16:31:30
(UTC-06:00)

Daily predictions for brighter satellites

Satellite Brightness Start Highest point End
(mag) Time Altitude Azimuth Time Altitude Azimuth Time Altitude Azimuth
Envisat 4.3 22:14:21 10° SSW 22:19:07 40° W 22:23:56 10° NNW
Cosmos 1437 Rocket 3.3 22:17:05 10° N 22:20:45 42° ENE 22:24:25 10° SE
Terra 3.3 22:17:04 10° ESE 22:20:55 25° ENE 22:24:47 10° N
Cosmos 2369 4.4 22:17:21 10° NNW 22:22:55 47° NE 22:28:25 10° SE
ASTEX 1 3.4 22:18:28 10° S 22:23:23 88° E 22:28:19 10° N
Cosmos 2341 Rocket 4.4 22:19:36 10° N 22:25:47 52° ENE 22:31:59 10° SSE
MetOp-B 4.2 22:22:48 10° SSE 22:28:10 88° ENE 22:33:34 10° NNW
CRYOSAT 2 4.4 22:24:19 10° S 22:29:10 88° ENE 22:34:03 10° N
Okean 1-7 Rocket 3.8 22:25:50 10° S 22:30:10 53° E 22:34:35 10° NNE
SPOT 1/Viking Rocket 3.8 22:25:32 10° SE 22:30:35 57° ENE 22:35:39 10° N
ISS -1.9 22:29:19 10° SSE 22:30:47 12° SE 22:32:15 10° ESE
Okean 2 4.1 22:27:11 10° SSE 22:30:56 36° E 22:34:42 10° NNE
Cosmos 1666 3.2 22:27:51 10° NNW 22:31:34 57° W 22:35:14 10° S
Cosmos 1697 Rocket 3.9 22:27:11 10° NNW 22:32:16 33° NE 22:37:18 10° ESE
Cosmos 839 Rocket 4.3 22:27:39 10° NW 22:33:59 76° NE 22:41:24 10° SE
Meteor 2-9 Rocket 4.3 22:29:11 10° NNW 22:34:37 79° W 22:40:11 10° S
Cosmos 1238 Rocket 4.2 22:29:20 10° S 22:36:03 72° E 22:42:30 10° NNE
Aureole 3 Rocket 3.7 22:33:02 10° SSW 22:39:14 80° W 22:43:38 10° N
Cosmos 2228 3.9 22:36:00 10° N 22:40:00 35° ENE 22:43:46 11° SE
Aureole 1 Rocket 2.3 22:37:37 10° S 22:40:45 53° ESE 22:43:41 10° NNE
Cosmos 1892 Rocket 4.4 22:39:01 10° SSE 22:43:01 33° E 22:46:59 10° NNE
Cosmos 1371 Rocket 4.1 22:37:39 10° NNW 22:43:03 85° WSW 22:48:20 10° SSE
Cosmos 921 Rocket 3.4 22:41:10 10° NNW 22:45:38 55° ENE 22:49:41 12° SE
Meteor 2-4 Rocket 3.8 22:41:37 10° S 22:47:17 89° ESE 22:53:09 10° NNE
ATLAS CENTAUR R/B 3.9 22:47:09 10° NNW 22:49:02 13° NNE 22:50:54 10° NE
Lacrosse 5 rocket 3.0 22:46:41 10° WNW 22:51:02 40° N 22:55:26 10° ENE
Cosmos 923 Rocket 4.3 22:46:12 10° SSW 22:51:32 75° WNW 22:56:51 10° NNE
NOSS 2-2 (E) 3.7 22:47:23 10° SW 22:51:36 88° NW 22:56:48 10° NE
Cosmos 1606 Rocket 3.5 22:47:20 10° N 22:51:42 81° E 22:55:58 10° SSE
Cosmos 1656 4.1 22:47:24 10° NNW 22:52:45 53° NE 22:57:43 12° SE
USA 245 2.7 22:53:35 10° S 22:56:12 53° WSW 22:58:32 10° NNW
Cosmos 1833 Rocket 4.2 22:53:01 12° SE 22:56:13 18° E 22:59:58 10° ENE
Meteor 1-4 Rocket 3.6 22:58:49 10° N 23:02:09 32° ENE 23:04:39 15° SE
Cosmos 1726 Rocket 3.5 22:58:15 10° N 23:02:37 87° E 23:06:36 12° S
Cosmos 2181 Rocket 4.2 22:58:25 10° S 23:04:39 58° E 23:10:48 10° NNE
SL-24 DEB 4.2 23:00:12 10° S 23:04:49 86° E 23:09:30 10° N
Cosmos 405 Rocket 4.4 23:01:50 10° SW 23:05:18 34° WNW 23:08:52 10° N
Cosmos 1515 3.9 23:02:58 11° S 23:06:26 54° E 23:10:10 10° NNE
ERS-1 Rocket 4.4 23:03:45 10° SSW 23:08:16 33° W 23:12:49 10° NNW
TELKOM 3 4.0 23:06:24 10° W 23:08:40 37° SSW 23:10:31 18° SE
PSLV R/B 4.2 23:07:34 17° ESE 23:09:11 29° ENE 23:11:42 10° N
Cosmos 2058 Rocket 3.1 23:04:59 10° N 23:09:24 77° ENE 23:13:09 14° SSE
Cosmos 1818 4.4 23:10:37 10° WSW 23:15:58 55° NW 23:21:21 10° NE
Meteor 1-23 Rocket 4.5 23:11:20 10° SSW 23:16:54 71° WNW 23:22:32 10° N
CARTOSAT-1 3.7 23:13:46 16° SSE 23:17:09 67° ENE 23:21:28 10° N
Cosmos 1441 Rocket 4.3 23:14:12 10° SW 23:17:48 43° WNW 23:21:24 10° N
USA 267 4.4 23:13:33 10° ENE 23:18:11 20° SE 23:21:19 15° SSE
Cosmos 1025 Rocket 3.5 23:14:09 10° SSW 23:18:22 59° WNW 23:22:37 10° N
H-2A R/B 2.2 23:14:06 12° S 23:18:44 69° WSW 23:23:48 10° NNW
Cosmos 1980 Rocket 3.1 23:13:54 10° NNW 23:19:19 42° NE 23:24:11 12° ESE
DMSP B5D2-2 4.2 23:18:33 10° NNE 23:23:48 58° E 23:28:29 13° S
Cosmos 2322 Rocket 4.0 23:22:42 10° NNW 23:27:21 25° NE 23:32:00 10° E
SL-27 R/B 3.6 23:25:20 10° SW 23:28:52 47° WNW 23:32:26 10° NNE
SeaSat 1 3.7 23:26:33 10° ESE 23:30:56 33° NE 23:35:21 10° NNW
Meteor 1-22 Rocket 4.2 23:31:00 10° N 23:36:17 67° ENE 23:40:04 20° SSE
Iridium 43 4.2 23:34:25 10° NNW 23:36:36 43° W 23:37:37 23° SSW
Cosmos 1812 Rocket 4.0 23:33:22 10° N 23:37:45 50° ENE 23:40:32 21° SE
CZ-4C R/B 3.7 23:37:42 22° SE 23:39:37 42° ENE 23:43:03 10° N
H-2A R/B 2.3 23:39:03 18° S 23:42:21 73° WSW 23:46:55 10° NNW
USA 229 DEB 4.0 23:36:10 10° NW 23:43:16 72° NE 23:49:36 14° SE
Landsat 7 4.4 23:39:26 14° S 23:43:20 53° W 23:48:01 10° NNW
USA 229 4.0 23:36:16 10° NW 23:43:22 71° NE 23:49:43 14° SE
Cosmos 1544 4.2 23:40:33 10° N 23:43:52 32° ENE 23:45:36 21° ESE
COSMOS 2406 4.4 23:39:17 10° WSW 23:44:46 45° NW 23:50:16 10° NNE
Cosmos 389 Rocket 4.4 23:42:55 10° NNE 23:45:33 20° ENE 23:47:15 14° ESE
SL-8 Rocket 4.2 23:40:56 10° NNW 23:47:09 72° W 23:52:21 16° S
SME Rocket 4.2 23:44:52 17° SE 23:48:26 38° ENE 23:52:15 10° N
Cosmos 2278 4.3 23:42:58 10° NW 23:48:29 51° WSW 23:52:35 18° S
Cosmos 2366 rocket 4.0 23:45:05 10° N 23:51:19 86° W 23:55:56 19° S
Cosmos 1626 Rocket 3.6 23:51:28 23° S 23:54:05 62° E 23:58:22 10° NNE
